Home   Weather   Utsunomiya   Past weeks

Flag for Japan Past Weather in Utsunomiya, Japan — Yesterday and Last 2 Weeks

Now
72 °F

Mild.


Feels Like: 70 °F
Forecast: 67 / 81 °F
Wind: 2 mph from East

Location: Mito

Current Time: Sep 27, 2016 at 7:30:34 AM

Latest Report: Sep 27, 2016 at 6:00 AM


Visibility: N/A

Pressure: 30.12 "Hg

Humidity: 91%

Dew Point: 70 °F

Location of UtsunomiyaLocation

Past Weather in Utsunomiya — Graph

°F

Utsunomiya Temperature Yesterday

Maximum temperature yesterday: 80 °F (at 1:00 PM)
Minimum temperature yesterday: 71 °F (at 6:00 AM)
Average temperature yesterday: 75 °F

High & Low Weather Summary for the Past Weeks

 TemperatureHumidityPressure
High84 °F (Sep 17, 2:00 PM)99% (Sep 24, 1:00 AM)30.20 "Hg (Sep 24, 1:00 AM)
Low63 °F (Sep 21, 6:00 AM)58% (Sep 17, 11:00 AM)29.71 "Hg (Sep 18, 4:00 PM)
Average72 °F88%30.00 "Hg
* Reported Sep 12 6:00 AM — Sep 27 6:00 AM, Utsunomiya, Weather by CustomWeather, © 2016

Note: Actual official high and low records may vary slightly from our data, if they occured in-between our weather recording intervals... More about our weather records

Advertising

Utsunomiya Weather History for the Previous 24 Hours

Scroll right to see more
 ConditionsComfort  
Time TempWeatherWind HumidityBarometerVisibility
6:00 AM
Tue, Sep 27
72 °FMild.2 mph91%30.12 "HgN/A
5:00 AM72 °FMild.1 mph93%30.10 "HgN/A
4:00 AM72 °FMild.1 mph93%30.09 "HgN/A
3:00 AM72 °FOvercast.3 mph92%30.10 "Hg9 mi
2:00 AM72 °FMild.2 mph92%30.11 "HgN/A
1:00 AM73 °FMild.2 mph87%30.13 "HgN/A
11:00 PM
Mon, Sep 26
73 °FMild.2 mph84%30.14 "HgN/A
10:00 PM74 °FMild.3 mph81%30.15 "HgN/A
9:00 PM74 °FOvercast.5 mph80%30.15 "Hg12 mi
8:00 PM74 °FMild.5 mph83%30.16 "HgN/A
7:00 PM74 °FMild.6 mph82%30.15 "HgN/A
6:00 PM75 °FMild.6 mph79%30.14 "HgN/A
5:00 PM75 °FMild.8 mph78%30.13 "HgN/A
4:00 PM77 °FMild.12 mph74%30.13 "HgN/A
3:00 PM79 °FOvercast.13 mph68%30.12 "Hg12 mi
2:00 PM78 °FWarm.13 mph74%30.11 "HgN/A
1:00 PM80 °FWarm.9 mph75%30.11 "HgN/A
12:00 PM79 °FWarm.7 mph77%30.13 "HgN/A
11:00 AM78 °FWarm.6 mph82%30.12 "HgN/A
10:00 AM78 °FWarm.2 mph82%30.14 "HgN/A
9:00 AM76 °FOvercast.2 mph85%30.14 "Hg6 mi
8:00 AM76 °FMild.2 mph85%30.12 "HgN/A
7:00 AM72 °FMild.1 mph92%30.12 "HgN/A
Weather by CustomWeather, © 2016

See weather overviewHow to use our weather pages